Location: Tel Aviv
(32.0670°N, 34.7670°E)
Time: 02:19:06
(UTC+03:00)

Vanguard 2 - Pass Details

Date: 25 January 2022
Orbit: 552 x 2935 km, 32.9° (Epoch: 26 May)

Event Time Altitude Azimuth Distance (km) Brightness Sun altitude
Rises 03:22:29 0° 283° (WNW) 6,434 - -41.5°
Reaches altitude 10° 03:27:14 10° 275° (W) 5,605 - -40.5°
Maximum altitude 03:41:30 32° 221° (SW) 4,168 - -37.5°
Exits shadow 03:42:47 32° 214° (SW) 4,164 10.9 -37.2°
Drops below altitude 10° 03:54:59 10° 165° (SSE) 5,240 11.9 -34.6°
Sets 03:59:20 0° 156° (SSE) 5,971 12.4 -33.7°
